Location: Peterborough
(44.3091°N, 78.3197°W)
Time: 20:18:57
(UTC-04:00)

Vanguard 2 Rocket - Pass Details

Date: 22 March 2023
Orbit: 554 x 3314 km, 32.9° (Epoch: 06 June)

Event Time Altitude Azimuth Distance (km) Brightness Sun altitude
Rises 21:16:02 0° 229° (SW) 3,866 10.5 -19.6°
Reaches altitude 10° 21:18:29 10° 220° (SW) 3,192 9.9 -20.1°
Maximum altitude 21:25:59 38° 156° (SSE) 2,478 8.7 -21.3°
Enters shadow 21:29:59 30° 121° (ESE) 3,130 9.0 -21.9°
